[[{"header":{"parameterUnit":"m.s-1","parameterCategory":1,"la1":30.2991,"la2":30.254,"lo1":-89.0895,"lo2":-89.0444,"dy":0.0017,"dx":0.0017,"nx":28,"ny":28,"refTime":"2024-04-29T09:00:00:Z","depth":0,"parameterNumber":2,"parameterNumberName":"U-component_of_WINDS"},"data":[0,0,0,0,0,0,0,0,0,0,0,0,0,0,0,0,0,0,0,0,0,0,0,0,0,0,0,0,0,0,0,0,0,0,0,0,0,0,0,0,0,0,0,0,0,0,0,0,0,0,0,0,0,0,0,0,0,0,-3.2897,-3.2899,0,-3.3055,-3.3057,-3.3059,-3.3166,-3.3167,-3.3168,-3.3168,-3.3326,-3.3329,-3.3332,0,0,0,0,0,0,0,0,0,0,0,0,0,-3.2682,-3.2685,-3.2897,-3.2899,-3.2901,-3.3055,-3.3057,-3.3059,-3.3166,-3.3167,-3.3168,-3.3169,-3.3324,-3.3328,-3.3333,0,0,0,0,0,0,0,0,0,0,0,0,0,-3.2801,-3.2686,-3.2897,-3.2973,-3.2981,-3.3055,-3.3057,-3.306,-3.3166,-3.3167,-3.3168,-3.3169,-3.3323,-3.3328,-3.3333,-3.3342,0,0,-3.3349,-3.3351,0,0,0,0,0,0,0,0,-3.2794,-3.2809,-3.296,-3.2968,-3.2977,-3.3092,-3.3039,-3.3154,-3.3165,-3.3095,-3.3168,-3.317,-3.3247,-3.3258,-3.3285,-3.3349,-3.3356,-3.335,-3.3353,-3.3355,-3.3356,0,0,0,0,0,0,0,-3.2786,-3.2803,-3.296,-3.2962,-3.2972,-3.2997,-3.3016,-3.3062,-3.3162,-3.3102,-3.311,-3.3127,-3.3252,-3.328,-3.329,-3.3358,-3.3349,-3.3354,-3.3357,-3.3359,-3.3437,-3.3436,0,0,0,0,0,0,-3.2766,-3.2795,-3.2955,-3.2964,-3.2887,-3.3,-3.3021,-3.3054,-3.3162,-3.318,-3.3126,-3.3132,-3.327,-3.3283,-3.3296,-3.3313,-3.3355,-3.336,-3.3363,-3.3438,-3.3437,-3.3436,0,0,0,0,0,0,-3.2761,-3.2779,-3.2948,-3.2882,-3.2905,-3.3003,-3.3039,-3.3057,-3.3085,-3.3181,-3.3199,-3.3137,-3.3272,-3.3288,-3.333,-3.332,-3.3362,-3.3367,-3.3439,-3.3438,-3.3436,-3.3347,0,0,0,0,0,0,-3.2755,-3.2777,-3.2782,-3.2881,-3.2909,-3.2981,-3.3039,-3.3059,-3.3094,-3.3103,-3.3196,-3.3212,-3.3274,-3.3322,-3.3335,-3.3328,-3.3371,-3.3441,-3.3439,-3.3437,-3.3351,-3.3342,-3.3335,0,0,0,0,0,-3.2747,-3.275,-3.2782,-3.2801,-3.2918,-3.298,-3.2995,-3.3068,-3.3093,-3.3099,-3.316,-3.3209,-3.3319,-3.3325,-3.3341,-3.3335,-3.3442,-3.3439,-3.3437,-3.3355,-3.3344,-3.3335,0,0,0,0,0,0,-3.2645,-3.2764,-3.2801,-3.2837,-3.2898,-3.2998,-3.3007,-3.3055,-3.3108,-3.3114,-3.32,-3.322,-3.3253,-3.3298,-3.3303,-3.3349,-3.3386,-3.3387,-3.3318,-3.3309,-3.3301,-3.3288,-3.3375,0,0,0,0,0,-3.2627,-3.267,-3.2771,-3.2793,-3.2821,-3.2909,-3.2939,-3.299,-3.3055,-3.3081,-3.3146,-3.3206,-3.3255,-3.3284,-3.3334,-3.3358,-3.338,-3.3362,-3.3354,-3.3347,-3.3346,-3.3362,-3.3355,-3.3428,-3.3428,-3.3428,0,0,-3.259,-3.2661,-3.2682,-3.2774,-3.2827,-3.2867,-3.293,-3.297,-3.3,-3.3087,-3.313,-3.318,-3.3253,-3.3286,-3.3304,-3.3325,-3.3331,-3.3344,-3.3337,-3.3341,-3.3359,-3.3352,-3.3345,-3.3427,-3.3427,-3.3427,0,0,-3.2543,-3.2601,-3.2626,-3.2678,-3.2758,-3.2816,-3.2822,-3.2915,-3.2952,-3.2997,-3.3063,-3.31,-3.3181,-3.3231,-3.3266,-3.3238,-3.3285,-3.3252,-3.3209,-3.3223,-3.3217,-3.3213,-3.3202,-3.3197,-3.3251,-3.3251,-3.3251,0,-3.2487,-3.2552,-3.2632,-3.2668,-3.2706,-3.2788,-3.2813,-3.2859,-3.295,-3.2974,-3.2997,-3.3101,-3.3156,-3.3201,-3.3194,-3.3221,-3.3229,-3.3241,-3.3212,-3.3208,-3.3205,-3.3195,-3.3191,-3.3246,-3.3247,-3.3247,-3.3248,0,-3.2478,-3.2521,-3.2531,-3.2619,-3.2658,-3.2688,-3.2771,-3.2801,-3.2848,-3.2904,-3.2948,-3.3018,-3.3083,-3.3097,-3.3143,-3.3149,-3.316,-3.3196,-3.3235,-3.3192,-3.3184,-3.3181,-3.3239,-3.3241,-3.3243,-3.3244,0,0,-3.2371,-3.2503,-3.2505,-3.2546,-3.264,-3.2675,-3.2708,-3.2773,-3.2797,-3.2857,-3.2886,-3.2953,-3.2988,-3.3028,-3.3081,-3.3093,-3.3066,-3.3129,-3.3132,-3.3113,-3.3075,-3.3046,-3.3041,-3.3098,-3.3097,-3.3097,-3.3069,0,-3.2337,-3.2403,-3.2476,-3.2515,-3.2556,-3.2635,-3.2664,-3.2724,-3.2776,-3.2817,-3.2875,-3.2921,-3.2964,-3.2988,-3.3005,-3.3065,-3.3059,-3.3069,-3.3124,-3.3125,-3.3102,-3.3037,-3.3007,-3.2976,-3.3066,-3.3066,-3.3066,0,-3.2307,-3.2365,-3.2409,-3.2499,-3.2519,-3.2544,-3.2609,-3.2648,-3.2718,-3.2755,-3.28,-3.2857,-3.2894,-3.2929,-3.2982,-3.2987,-3.3014,-3.3047,-3.3048,-3.3055,-3.3092,-3.3041,-3.2969,-3.2963,-3.3062,-3.3062,-3.3062,0,-3.2223,-3.2312,-3.235,-3.2382,-3.2489,-3.2504,-3.2549,-3.262,-3.2655,-3.2711,-3.2734,-3.2794,-3.2826,-3.2871,-3.2941,-3.296,-3.2985,-3.3027,-3.3016,-3.3014,-3.3017,-3.3016,-3.2946,-3.3036,-3.3036,-3.3036,-3.3036,0,-3.2178,-3.2201,-3.2314,-3.2336,-3.2365,-3.2447,-3.2473,-3.2525,-3.2587,-3.262,-3.2692,-3.2721,-3.2813,-3.2853,-3.2909,-3.2943,-3.2958,-3.2988,-3.3002,-3.2981,-3.2977,-3.2999,-3.3002,-3.3035,-3.3035,-3.3035,-3.3036,0,-3.2088,-3.2165,-3.2211,-3.2309,-3.2334,-3.235,-3.2433,-3.2458,-3.2515,-3.2556,-3.2571,-3.2659,-3.271,-3.2786,-3.2859,-3.2896,-3.2921,-3.2945,-3.2898,-3.2906,-3.2891,-3.2891,-3.2833,-3.2829,-3.2921,-3.292,-3.2919,0,-3.2054,-3.2074,-3.2174,-3.2202,-3.2245,-3.229,-3.2325,-3.2407,-3.2441,-3.2522,-3.2536,-3.2593,-3.2643,-3.2721,-3.2791,-3.2847,-3.2872,-3.2848,-3.2881,-3.2859,-3.2871,-3.2868,-3.287,-3.2839,-3.2838,-3.2837,-3.2836,0,-3.1984,-3.2021,-3.207,-3.2133,-3.2174,-3.2227,-3.2283,-3.2301,-3.2395,-3.243,-3.2483,-3.2522,-3.2598,-3.2652,-3.2719,-3.2764,-3.2815,-3.2825,-3.2826,-3.2804,-3.2775,-3.2789,-3.2875,-3.2826,-3.2827,-3.2828,-3.2828,-3.2829,-3.1921,-3.1942,-3.2016,-3.2068,-3.2119,-3.217,-3.2198,-3.2259,-3.2305,-3.2374,-3.2419,-3.247,-3.2539,-3.2633,-3.2676,-3.2716,-3.2738,-3.2738,-3.2738,-3.2737,-3.2729,-3.277,-3.2728,-3.2729,-3.2729,-3.2729,-3.273,0,-3.1854,-3.1905,-3.1953,-3.2029,-3.207,-3.2117,-3.2181,-3.2212,-3.2256,-3.2317,-3.2364,-3.2426,-3.2479,-3.2554,-3.2613,-3.2631,-3.2656,-3.2644,-3.2642,-3.2652,-3.2707,-3.27,-3.2622,-3.2622,-3.2622,-3.2622,-3.2622,-3.2622,-3.1823,-3.1862,-3.1907,-3.1971,-3.2022,-3.2073,-3.2106,-3.2153,-3.2201,-3.2267,-3.2312,-3.2361,-3.2427,-3.2492,-3.2543,-3.2564,-3.2581,-3.2561,-3.2589,-3.2638,-3.2648,-3.2657,-3.2651,-3.2565,-3.2565,-3.2531,-3.253,-3.253]},{"header":{"parameterUnit":"m.s-1","parameterCategory":1,"la1":30.2991,"la2":30.254,"lo1":-89.0895,"lo2":-89.0444,"dy":0.0017,"dx":0.0017,"nx":28,"ny":28,"refTime":"2024-04-29T09:00:00:Z","depth":0,"parameterNumber":3,"parameterNumberName":"V-component_of_WINDS"},"data":[0,0,0,0,0,0,0,0,0,0,0,0,0,0,0,0,0,0,0,0,0,0,0,0,0,0,0,0,0,0,0,0,0,0,0,0,0,0,0,0,0,0,0,0,0,0,0,0,0,0,0,0,0,0,0,0,0,0,6.8345,6.8345,0,6.8331,6.8331,6.8331,6.823,6.8227,6.8225,6.8222,6.8207,6.8209,6.8211,0,0,0,0,0,0,0,0,0,0,0,0,0,6.8284,6.8286,6.8345,6.8345,6.8345,6.8331,6.8331,6.8331,6.823,6.8227,6.8224,6.8221,6.8207,6.8209,6.8211,0,0,0,0,0,0,0,0,0,0,0,0,0,6.8294,6.8286,6.8345,6.8293,6.8288,6.8331,6.8331,6.8331,6.8231,6.8227,6.8223,6.822,6.8206,6.8209,6.8212,6.8304,0,0,6.822,6.8222,0,0,0,0,0,0,0,0,6.8294,6.8297,6.8301,6.8296,6.8291,6.8278,6.8304,6.8322,6.8232,6.8252,6.8222,6.8218,6.8234,6.8234,6.824,6.8303,6.8302,6.8221,6.8222,6.8224,6.8225,0,0,0,0,0,0,0,6.8293,6.8297,6.8339,6.8301,6.8295,6.827,6.8267,6.8307,6.8264,6.825,6.8243,6.8243,6.8231,6.8237,6.8239,6.8302,6.8221,6.8223,6.8225,6.8226,6.8441,6.8445,0,0,0,0,0,0,6.83,6.8297,6.834,6.8339,6.8283,6.8274,6.8271,6.8286,6.8263,6.8256,6.8246,6.8238,6.8234,6.8236,6.8238,6.8344,6.8224,6.8226,6.8228,6.8437,6.8442,6.8446,0,0,0,0,0,0,6.8299,6.8305,6.834,6.8316,6.8319,6.8279,6.8297,6.8288,6.8294,6.826,6.8252,6.8261,6.8231,6.8234,6.8288,6.8342,6.8228,6.823,6.8432,6.8438,6.8444,6.8556,0,0,0,0,0,0,6.8298,6.8305,6.8339,6.8317,6.832,6.8391,6.83,6.829,6.83,6.8289,6.8272,6.8265,6.8229,6.8285,6.8291,6.8344,6.8233,6.8427,6.8435,6.8442,6.8548,6.8565,6.8581,0,0,0,0,0,6.8296,6.8371,6.8341,6.8347,6.8362,6.8394,6.8396,6.8352,6.8304,6.8338,6.8317,6.8266,6.8336,6.8291,6.8298,6.8352,6.8424,6.8433,6.8442,6.854,6.8562,6.858,0,0,0,0,0,0,6.8399,6.8367,6.8334,6.8404,6.8403,6.8377,6.8418,6.8377,6.8389,6.8378,6.8324,6.8321,6.8384,6.8373,6.8324,6.844,6.8371,6.8382,6.8444,6.8464,6.848,6.848,6.8235,0,0,0,0,0,6.843,6.8459,6.843,6.8495,6.8496,6.8458,6.847,6.8437,6.8433,6.8432,6.8414,6.8412,6.8434,6.8449,6.8467,6.8547,6.8541,6.8588,6.8604,6.8618,6.8627,6.8669,6.8688,6.8476,6.8476,6.8475,0,0,6.8494,6.848,6.8502,6.8515,6.851,6.8541,6.8458,6.8494,6.8516,6.8437,6.8487,6.8475,6.8469,6.8537,6.8566,6.8531,6.8685,6.8629,6.8641,6.8642,6.868,6.87,6.8718,6.8482,6.8481,6.848,0,0,6.8626,6.8619,6.8672,6.867,6.8664,6.8639,6.8652,6.8633,6.8622,6.8672,6.8614,6.864,6.8678,6.8676,6.8681,6.8816,6.8769,6.8824,6.8908,6.895,6.8967,6.8981,6.9028,6.9046,6.8833,6.8834,6.8834,0,6.8706,6.875,6.8705,6.8745,6.8753,6.8685,6.8738,6.8738,6.8739,6.8745,6.8706,6.8753,6.8745,6.8811,6.8844,6.8851,6.8864,6.8823,6.8968,6.8982,6.8995,6.9039,6.9057,6.884,6.8839,6.8839,6.8838,0,6.8848,6.888,6.8924,6.8927,6.894,6.8987,6.8949,6.8968,6.8935,6.8915,6.8967,6.8955,6.8969,6.8983,6.8951,6.9046,6.9024,6.8978,6.8906,6.9023,6.9063,6.908,6.8849,6.8847,6.8845,6.8843,0,0,6.904,6.902,6.9037,6.9038,6.9028,6.9052,6.9097,6.9111,6.9128,6.9132,6.9167,6.9203,6.916,6.9165,6.9133,6.917,6.9277,6.9119,6.9118,6.9147,6.9379,6.9413,6.9433,6.9247,6.925,6.9253,6.9379,0,6.9166,6.924,6.9203,6.9282,6.9311,6.9249,6.9287,6.9286,6.9269,6.9291,6.9272,6.9297,6.924,6.9242,6.9276,6.9257,6.9322,6.9247,6.9278,6.928,6.9279,6.9454,6.9489,6.9609,6.9395,6.9398,6.94,0,6.9321,6.9332,6.9415,6.9401,6.9412,6.9447,6.9458,6.9481,6.9478,6.9463,6.9471,6.9431,6.9473,6.9406,6.9464,6.9414,6.9425,6.9418,6.9422,6.9421,6.9345,6.9456,6.9647,6.9664,6.9425,6.9423,6.9421,0,6.9451,6.9487,6.9541,6.9544,6.953,6.9556,6.9552,6.9545,6.9557,6.9568,6.9575,6.9591,6.9598,6.9611,6.9577,6.9531,6.964,6.9569,6.9627,6.9628,6.965,6.9649,6.9843,6.9662,6.9662,6.9661,6.9661,0,6.9593,6.9646,6.96,6.9633,6.969,6.9647,6.9705,6.9694,6.969,6.9719,6.9667,6.9696,6.965,6.9674,6.9648,6.97,6.9704,6.9693,6.9684,6.9696,6.9697,6.97,6.969,6.9666,6.9665,6.9664,6.9663,0,6.9747,6.9718,6.9773,6.9756,6.9753,6.9796,6.9781,6.9811,6.9792,6.983,6.9837,6.9806,6.9833,6.98,6.9824,6.9806,6.9876,6.9857,6.9877,6.987,6.993,6.9924,7.0131,7.0156,6.9961,6.9963,6.9965,0,6.9838,6.9877,6.9865,6.9882,6.9881,6.9908,6.992,6.9881,6.9896,6.9898,6.9928,6.995,6.9965,7.0011,6.999,7.0008,6.9988,7.0059,6.999,7.0,6.9987,6.9984,6.9987,7.0072,7.0075,7.0076,7.0078,0,7.0003,6.9987,7.0007,7.0024,7.0041,7.0051,7.0058,7.0075,7.0033,7.0053,7.008,7.0093,7.0118,7.014,7.0153,7.0148,7.0106,7.0101,7.0115,7.0126,7.0135,7.013,6.9913,7.0095,7.0094,7.0092,7.0091,7.0091,7.0126,7.0158,7.0156,7.018,7.0182,7.019,7.0218,7.0203,7.0225,7.0242,7.0218,7.0252,7.025,7.0263,7.0263,7.0289,7.0258,7.0279,7.0284,7.0289,7.0297,7.0134,7.0291,7.0291,7.029,7.029,7.0289,0,7.0287,7.0283,7.0306,7.0318,7.0338,7.03,7.0306,7.0325,7.0355,7.0358,7.0375,7.0406,7.0429,7.0412,7.0431,7.0455,7.0436,7.0461,7.0457,7.0457,7.0324,7.031,7.0475,7.0475,7.0475,7.0475,7.0475,7.0475,7.0372,7.0425,7.041,7.0463,7.0459,7.0492,7.0499,7.0506,7.0508,7.0546,7.0565,7.0554,7.0549,7.0567,7.0586,7.0581,7.0589,7.0621,7.0608,7.0484,7.0466,7.0448,7.0434,7.0623,7.0624,7.0738,7.0739,7.074]}]]